Time,TemperatureF,DewpointF,PressureIn,WindDirection,WindDirectionDegrees,WindSpeedMPH,WindSpeedGustMPH,Humidity,HourlyPrecipIn,Conditions,Clouds,dailyrainin,SoftwareType,DateUTC
2013-06-06 00:00:00,68.1,59.9,29.96,East,92,0.0,0.0,75,0.00,,,0.00,Wunderground v.1.15,2013-06-06 04:00:00,
2013-06-06 00:05:00,68.0,60.2,29.95,East,92,0.0,0.0,76,0.00,,,0.00,Wunderground v.1.15,2013-06-06 04:05:00,
2013-06-06 00:10:00,67.9,60.1,29.95,East,92,0.0,0.0,76,0.00,,,0.00,Wunderground v.1.15,2013-06-06 04:10:00,
2013-06-06 00:15:00,67.9,60.1,29.96,East,91,0.0,0.0,76,0.00,,,0.00,Wunderground v.1.15,2013-06-06 04:15:00,
2013-06-06 00:25:00,67.8,60.0,29.95,East,91,0.0,0.0,76,0.00,,,0.00,Wunderground v.1.15,2013-06-06 04:25:00,
2013-06-06 00:30:00,67.7,60.2,29.96,East,91,0.0,1.0,77,0.00,,,0.00,Wunderground v.1.15,2013-06-06 04:30:00,
2013-06-06 00:40:00,67.6,60.1,29.96,East,91,0.0,0.0,77,0.00,,,0.00,Wunderground v.1.15,2013-06-06 04:40:00,
2013-06-06 00:50:00,67.4,59.9,29.96,East,91,0.0,0.0,77,0.00,,,0.00,Wunderground v.1.15,2013-06-06 04:50:00,
2013-06-06 00:55:00,67.4,60.3,29.96,East,91,0.0,0.0,78,0.00,,,0.00,Wunderground v.1.15,2013-06-06 04:55:00,
2013-06-06 01:05:00,67.4,59.9,29.95,East,91,0.0,0.0,77,0.00,,,0.00,Wunderground v.1.15,2013-06-06 05:05:00,
2013-06-06 01:15:00,67.4,59.9,29.95,East,91,0.0,0.0,77,0.00,,,0.00,Wunderground v.1.15,2013-06-06 05:15:00,
2013-06-06 01:20:00,67.4,60.3,29.95,ENE,61,0.0,0.0,78,0.00,,,0.00,Wunderground v.1.15,2013-06-06 05:20:00,
2013-06-06 01:30:00,67.4,60.3,29.94,ENE,61,0.0,0.0,78,0.00,,,0.00,Wunderground v.1.15,2013-06-06 05:30:00,
2013-06-06 01:35:00,67.4,59.9,29.94,ENE,61,0.0,0.0,77,0.00,,,0.00,Wunderground v.1.15,2013-06-06 05:35:00,
2013-06-06 01:45:00,67.3,59.8,29.93,ENE,61,0.0,0.0,77,0.00,,,0.00,Wunderground v.1.15,2013-06-06 05:45:00,
2013-06-06 01:55:00,67.2,59.7,29.94,NW,320,0.0,1.0,77,0.00,,,0.00,Wunderground v.1.15,2013-06-06 05:55:00,
2013-06-06 02:00:00,67.3,59.8,29.93,NW,320,0.0,0.0,77,0.00,,,0.00,Wunderground v.1.15,2013-06-06 06:00:00,
2013-06-06 02:05:00,67.3,59.5,29.93,NW,320,0.0,0.0,76,0.00,,,0.00,Wunderground v.1.15,2013-06-06 06:05:00,
2013-06-06 02:15:00,67.5,59.7,29.93,NW,320,0.0,0.0,76,0.00,,,0.00,Wunderground v.1.15,2013-06-06 06:15:00,
2013-06-06 02:25:00,67.5,59.3,29.93,NW,320,0.0,0.0,75,0.00,,,0.00,Wunderground v.1.15,2013-06-06 06:25:00,
2013-06-06 02:35:00,67.5,59.3,29.93,NW,320,0.0,0.0,75,0.00,,,0.00,Wunderground v.1.15,2013-06-06 06:35:00,
2013-06-06 02:45:00,67.4,59.2,29.92,NW,322,0.0,0.0,75,0.00,,,0.00,Wunderground v.1.15,2013-06-06 06:45:00,
2013-06-06 02:55:00,67.4,59.2,29.92,NW,322,0.0,1.0,75,0.00,,,0.00,Wunderground v.1.15,2013-06-06 06:55:00,
2013-06-06 03:05:00,67.2,59.0,29.93,NW,322,0.0,0.0,75,0.00,,,0.00,Wunderground v.1.15,2013-06-06 07:05:00,
2013-06-06 03:15:00,67.1,58.9,29.92,NW,322,0.0,1.0,75,0.00,,,0.00,Wunderground v.1.15,2013-06-06 07:15:00,
2013-06-06 03:25:00,67.0,58.8,29.92,NW,322,0.0,0.0,75,0.00,,,0.00,Wunderground v.1.15,2013-06-06 07:25:00,
2013-06-06 03:35:00,66.9,58.7,29.92,NW,322,0.0,0.0,75,0.00,,,0.00,Wunderground v.1.15,2013-06-06 07:35:00,
2013-06-06 03:40:00,66.8,58.6,29.92,NW,322,0.0,1.0,75,0.00,,,0.00,Wunderground v.1.15,2013-06-06 07:40:00,
2013-06-06 03:50:00,66.7,58.5,29.91,NW,322,0.0,1.0,75,0.00,,,0.00,Wunderground v.1.15,2013-06-06 07:50:00,
2013-06-06 04:00:00,66.5,58.7,29.91,NW,322,0.0,0.0,76,0.00,,,0.00,Wunderground v.1.15,2013-06-06 08:00:00,
2013-06-06 04:05:00,66.5,58.7,29.91,NW,322,0.0,0.0,76,0.00,,,0.00,Wunderground v.1.15,2013-06-06 08:05:00,
2013-06-06 04:15:00,66.4,58.6,29.91,NW,322,0.0,1.0,76,0.00,,,0.00,Wunderground v.1.15,2013-06-06 08:15:00,
2013-06-06 04:25:00,66.1,58.3,29.91,NW,322,0.0,0.0,76,0.00,,,0.00,Wunderground v.1.15,2013-06-06 08:25:00,
2013-06-06 04:30:00,66.1,58.3,29.91,NNE,24,0.0,2.0,76,0.00,,,0.00,Wunderground v.1.15,2013-06-06 08:30:00,
2013-06-06 04:40:00,65.9,58.5,29.91,NNE,24,1.0,1.0,77,0.00,,,0.00,Wunderground v.1.15,2013-06-06 08:40:00,
2013-06-06 04:45:00,65.8,58.7,29.91,NNE,24,0.0,1.0,78,0.00,,,0.00,Wunderground v.1.15,2013-06-06 08:45:00,
2013-06-06 04:55:00,65.7,58.3,29.90,ENE,60,1.0,1.0,77,0.00,,,0.00,Wunderground v.1.15,2013-06-06 08:55:00,
2013-06-06 05:05:00,65.6,58.6,29.90,NE,38,1.0,2.0,78,0.00,,,0.00,Wunderground v.1.15,2013-06-06 09:05:00,
2013-06-06 05:15:00,65.4,58.7,29.91,NE,53,1.0,1.0,79,0.00,,,0.00,Wunderground v.1.15,2013-06-06 09:15:00,
2013-06-06 05:25:00,65.3,58.6,29.91,NE,37,1.0,1.0,79,0.00,,,0.00,Wunderground v.1.15,2013-06-06 09:25:00,
2013-06-06 05:35:00,65.2,58.5,29.91,NE,43,1.0,2.0,79,0.00,,,0.00,Wunderground v.1.15,2013-06-06 09:35:00,
2013-06-06 05:45:00,65.2,58.5,29.91,NE,41,1.0,1.0,79,0.00,,,0.00,Wunderground v.1.15,2013-06-06 09:45:00,
2013-06-06 05:55:00,65.1,58.8,29.91,NE,41,0.0,1.0,80,0.00,,,0.00,Wunderground v.1.15,2013-06-06 09:55:00,
2013-06-06 06:05:00,64.8,59.2,29.91,NE,41,0.0,1.0,82,0.00,,,0.00,Wunderground v.1.15,2013-06-06 10:05:00,
2013-06-06 06:15:00,64.4,59.1,29.91,NE,41,1.0,1.0,83,0.00,,,0.00,Wunderground v.1.15,2013-06-06 10:15:00,
2013-06-06 06:25:00,64.1,58.8,29.91,NE,41,0.0,0.0,83,0.00,,,0.00,Wunderground v.1.15,2013-06-06 10:25:00,
2013-06-06 06:35:00,63.9,59.0,29.91,NE,41,0.0,1.0,84,0.00,,,0.00,Wunderground v.1.15,2013-06-06 10:35:00,
2013-06-06 06:45:00,63.7,59.1,29.91,NE,41,0.0,0.0,85,0.00,,,0.00,Wunderground v.1.15,2013-06-06 10:45:00,
2013-06-06 06:55:00,63.6,59.3,29.91,NE,42,1.0,1.0,86,0.00,,,0.00,Wunderground v.1.15,2013-06-06 10:55:00,
2013-06-06 07:05:00,63.4,59.5,29.91,ENE,62,0.0,0.0,87,0.00,,,0.00,Wunderground v.1.15,2013-06-06 11:05:00,
2013-06-06 07:15:00,63.2,59.3,29.91,ENE,60,0.0,1.0,87,0.00,,,0.00,Wunderground v.1.15,2013-06-06 11:15:00,
2013-06-06 07:25:00,63.1,59.5,29.91,SE,124,1.0,1.0,88,0.00,,,0.00,Wunderground v.1.15,2013-06-06 11:25:00,
2013-06-06 07:30:00,63.0,59.4,29.91,NE,56,1.0,1.0,88,0.00,,,0.00,Wunderground v.1.15,2013-06-06 11:30:00,
2013-06-06 07:40:00,62.8,59.2,29.91,East,93,1.0,1.0,88,0.00,,,0.00,Wunderground v.1.15,2013-06-06 11:40:00,
2013-06-06 07:45:00,62.7,59.1,29.91,ENE,60,1.0,1.0,88,0.00,,,0.00,Wunderground v.1.15,2013-06-06 11:45:00,
2013-06-06 07:55:00,62.7,59.4,29.91,ENE,73,1.0,1.0,89,0.00,,,0.00,Wunderground v.1.15,2013-06-06 11:55:00,
2013-06-06 08:05:00,62.5,59.2,29.91,ENE,60,1.0,2.0,89,0.00,,,0.00,Wunderground v.1.15,2013-06-06 12:05:00,
2013-06-06 08:15:00,62.4,59.4,29.91,ENE,60,0.0,0.0,90,0.00,,,0.00,Wunderground v.1.15,2013-06-06 12:15:00,
2013-06-06 08:25:00,62.6,59.6,29.91,East,90,0.0,0.0,90,0.00,,,0.00,Wunderground v.1.15,2013-06-06 12:25:00,
2013-06-06 08:35:00,62.6,59.3,29.91,ESE,104,1.0,1.0,89,0.00,,,0.00,Wunderground v.1.15,2013-06-06 12:35:00,
2013-06-06 08:40:00,62.6,59.0,29.91,East,98,1.0,1.0,88,0.00,,,0.00,Wunderground v.1.15,2013-06-06 12:40:00,
2013-06-06 08:50:00,62.5,59.2,29.90,East,87,0.0,1.0,89,0.00,,,0.01,Wunderground v.1.15,2013-06-06 12:50:00,
2013-06-06 09:00:00,62.2,59.2,29.90,ENE,61,0.0,0.0,90,0.09,,,0.04,Wunderground v.1.15,2013-06-06 13:00:00,
2013-06-06 09:05:00,62.1,59.4,29.90,ENE,61,0.0,0.0,91,0.05,,,0.04,Wunderground v.1.15,2013-06-06 13:05:00,
2013-06-06 09:15:00,62.1,59.7,29.90,ENE,58,0.0,0.0,92,0.00,,,0.04,Wunderground v.1.15,2013-06-06 13:15:00,
2013-06-06 09:25:00,62.2,59.8,29.90,East,85,0.0,1.0,92,0.00,,,0.04,Wunderground v.1.15,2013-06-06 13:25:00,
2013-06-06 09:35:00,62.2,59.8,29.90,ENE,71,1.0,2.0,92,0.00,,,0.04,Wunderground v.1.15,2013-06-06 13:35:00,
2013-06-06 09:40:00,62.4,60.0,29.89,NNE,30,1.0,1.0,92,0.00,,,0.04,Wunderground v.1.15,2013-06-06 13:40:00,
2013-06-06 09:50:00,62.6,60.2,29.90,ESE,117,0.0,0.0,92,0.00,,,0.04,Wunderground v.1.15,2013-06-06 13:50:00,
2013-06-06 10:00:00,62.8,60.4,29.89,ENE,77,1.0,2.0,92,0.00,,,0.05,Wunderground v.1.15,2013-06-06 14:00:00,
2013-06-06 10:05:00,62.8,60.4,29.89,ESE,118,1.0,2.0,92,0.00,,,0.05,Wunderground v.1.15,2013-06-06 14:05:00,
2013-06-06 10:15:00,62.9,60.8,29.89,ESE,106,0.0,1.0,93,0.04,,,0.06,Wunderground v.1.15,2013-06-06 14:15:00,
2013-06-06 10:20:00,62.9,60.8,29.89,ENE,73,0.0,0.0,93,0.04,,,0.06,Wunderground v.1.15,2013-06-06 14:20:00,
2013-06-06 10:25:00,63.0,60.9,29.89,ENE,73,0.0,0.0,93,0.05,,,0.07,Wunderground v.1.15,2013-06-06 14:25:00,
2013-06-06 10:35:00,63.1,61.0,29.89,East,93,0.0,0.0,93,0.10,,,0.08,Wunderground v.1.15,2013-06-06 14:35:00,
2013-06-06 10:45:00,63.2,61.1,29.89,East,85,0.0,2.0,93,0.05,,,0.09,Wunderground v.1.15,2013-06-06 14:45:00,
2013-06-06 10:50:00,63.3,61.5,29.88,ESE,107,1.0,1.0,94,0.05,,,0.09,Wunderground v.1.15,2013-06-06 14:50:00,
2013-06-06 11:00:00,63.5,61.7,29.88,ENE,62,1.0,1.0,94,0.06,,,0.10,Wunderground v.1.15,2013-06-06 15:00:00,
2013-06-06 11:05:00,63.4,61.3,29.89,East,85,1.0,1.0,93,0.04,,,0.10,Wunderground v.1.15,2013-06-06 15:05:00,
2013-06-06 11:15:00,63.3,61.2,29.89,NE,45,1.0,2.0,93,0.09,,,0.12,Wunderground v.1.15,2013-06-06 15:15:00,
2013-06-06 11:25:00,63.1,61.0,29.88,ENE,61,1.0,2.0,93,0.56,,,0.17,Wunderground v.1.15,2013-06-06 15:25:00,
2013-06-06 11:30:00,62.9,60.8,29.89,North,349,1.0,2.0,93,0.16,,,0.18,Wunderground v.1.15,2013-06-06 15:30:00,
2013-06-06 11:40:00,62.5,60.4,29.89,South,182,1.0,2.0,93,0.11,,,0.20,Wunderground v.1.15,2013-06-06 15:40:00,
2013-06-06 11:50:00,62.4,60.3,29.89,SE,134,0.0,2.0,93,0.06,,,0.21,Wunderground v.1.15,2013-06-06 15:50:00,
2013-06-06 11:55:00,62.3,60.2,29.89,NNE,32,1.0,2.0,93,0.08,,,0.22,Wunderground v.1.15,2013-06-06 15:55:00,
2013-06-06 12:05:00,62.2,60.2,29.89,SW,230,1.0,4.0,93,0.07,,,0.23,Wunderground v.1.15,2013-06-06 16:05:00,
2013-06-06 12:15:00,61.9,59.5,29.89,SSE,158,2.0,2.0,92,0.07,,,0.24,Wunderground v.1.15,2013-06-06 16:15:00,
2013-06-06 12:25:00,61.7,59.7,29.89,SSW,206,1.0,2.0,93,0.08,,,0.26,Wunderground v.1.15,2013-06-06 16:25:00,
2013-06-06 12:35:00,61.8,59.8,29.89,WSW,256,0.0,3.0,93,0.07,,,0.27,Wunderground v.1.15,2013-06-06 16:35:00,
2013-06-06 12:45:00,61.7,59.7,29.88,WSW,245,1.0,3.0,93,0.05,,,0.27,Wunderground v.1.15,2013-06-06 16:45:00,
2013-06-06 12:55:00,61.7,59.7,29.88,East,84,0.0,0.0,93,0.05,,,0.28,Wunderground v.1.15,2013-06-06 16:55:00,
2013-06-06 13:05:00,61.6,59.6,29.88,North,4,0.0,1.0,93,0.09,,,0.30,Wunderground v.1.15,2013-06-06 17:05:00,
2013-06-06 13:15:00,61.6,59.6,29.88,NNE,33,1.0,1.0,93,0.17,,,0.32,Wunderground v.1.15,2013-06-06 17:15:00,
2013-06-06 13:25:00,61.6,59.6,29.88,WSW,242,0.0,2.0,93,0.17,,,0.35,Wunderground v.1.15,2013-06-06 17:25:00,
2013-06-06 13:30:00,61.5,59.5,29.88,NW,321,0.0,1.0,93,0.24,,,0.37,Wunderground v.1.15,2013-06-06 17:30:00,
2013-06-06 13:35:00,61.5,59.5,29.88,SW,221,0.0,1.0,93,0.18,,,0.38,Wunderground v.1.15,2013-06-06 17:35:00,
2013-06-06 13:45:00,61.5,59.8,29.87,SW,235,0.0,1.0,94,0.16,,,0.41,Wunderground v.1.15,2013-06-06 17:45:00,
2013-06-06 13:55:00,61.8,60.4,29.87,SE,143,0.0,0.0,95,0.13,,,0.43,Wunderground v.1.15,2013-06-06 17:55:00,
2013-06-06 14:00:00,61.9,60.5,29.87,SE,143,0.0,0.0,95,0.17,,,0.44,Wunderground v.1.15,2013-06-06 18:00:00,
2013-06-06 14:05:00,62.0,60.6,29.87,SE,143,0.0,0.0,95,0.16,,,0.45,Wunderground v.1.15,2013-06-06 18:05:00,
2013-06-06 14:15:00,62.1,60.7,29.86,SE,143,0.0,0.0,95,0.13,,,0.47,Wunderground v.1.15,2013-06-06 18:15:00,
2013-06-06 14:20:00,62.1,60.7,29.86,SE,143,0.0,0.0,95,0.10,,,0.48,Wunderground v.1.15,2013-06-06 18:20:00,
2013-06-06 14:30:00,62.0,60.6,29.86,SE,143,0.0,0.0,95,0.08,,,0.49,Wunderground v.1.15,2013-06-06 18:30:00,
2013-06-06 14:40:00,61.9,60.5,29.86,SE,143,0.0,0.0,95,0.10,,,0.51,Wunderground v.1.15,2013-06-06 18:40:00,
2013-06-06 14:45:00,62.0,60.6,29.86,SE,143,0.0,0.0,95,0.12,,,0.52,Wunderground v.1.15,2013-06-06 18:45:00,
2013-06-06 14:55:00,62.0,60.6,29.86,SE,143,0.0,1.0,95,0.18,,,0.55,Wunderground v.1.15,2013-06-06 18:55:00,
2013-06-06 15:05:00,62.0,60.6,29.86,East,90,0.0,2.0,95,0.21,,,0.58,Wunderground v.1.15,2013-06-06 19:05:00,
2013-06-06 15:15:00,62.0,60.6,29.86,East,90,0.0,0.0,95,0.19,,,0.61,Wunderground v.1.15,2013-06-06 19:15:00,
2013-06-06 15:25:00,62.0,60.6,29.86,East,90,0.0,0.0,95,0.07,,,0.63,Wunderground v.1.15,2013-06-06 19:25:00,
2013-06-06 15:35:00,62.0,60.6,29.85,East,87,0.0,1.0,95,0.11,,,0.64,Wunderground v.1.15,2013-06-06 19:35:00,
2013-06-06 15:45:00,62.1,60.7,29.85,ENE,66,0.0,1.0,95,0.07,,,0.65,Wunderground v.1.15,2013-06-06 19:45:00,
2013-06-06 15:50:00,62.2,60.8,29.85,ENE,69,1.0,1.0,95,0.07,,,0.66,Wunderground v.1.15,2013-06-06 19:50:00,
2013-06-06 16:00:00,62.2,60.8,29.84,ENE,69,0.0,1.0,95,0.05,,,0.66,Wunderground v.1.15,2013-06-06 20:00:00,
2013-06-06 16:05:00,62.2,61.0,29.84,ENE,76,0.0,1.0,96,0.00,,,0.66,Wunderground v.1.15,2013-06-06 20:05:00,
2013-06-06 16:15:00,62.4,61.2,29.83,ENE,76,0.0,1.0,96,0.00,,,0.66,Wunderground v.1.15,2013-06-06 20:15:00,
2013-06-06 16:25:00,62.3,61.1,29.83,ENE,76,0.0,0.0,96,0.00,,,0.66,Wunderground v.1.15,2013-06-06 20:25:00,
2013-06-06 16:35:00,62.3,61.1,29.83,East,99,0.0,0.0,96,0.00,,,0.66,Wunderground v.1.15,2013-06-06 20:35:00,
2013-06-06 16:40:00,62.3,61.1,29.83,East,100,0.0,0.0,96,0.00,,,0.66,Wunderground v.1.15,2013-06-06 20:40:00,
2013-06-06 16:50:00,62.5,61.3,29.83,East,100,0.0,0.0,96,0.00,,,0.67,Wunderground v.1.15,2013-06-06 20:50:00,
2013-06-06 17:00:00,62.6,61.4,29.83,East,100,0.0,0.0,96,0.00,,,0.67,Wunderground v.1.15,2013-06-06 21:00:00,
2013-06-06 17:05:00,62.6,61.4,29.83,ESE,117,0.0,0.0,96,0.00,,,0.67,Wunderground v.1.15,2013-06-06 21:05:00,
2013-06-06 17:15:00,62.6,61.4,29.83,ESE,117,0.0,1.0,96,0.00,,,0.67,Wunderground v.1.15,2013-06-06 21:15:00,
2013-06-06 17:25:00,62.6,61.4,29.82,ESE,117,0.0,0.0,96,0.00,,,0.67,Wunderground v.1.15,2013-06-06 21:25:00,
2013-06-06 17:35:00,62.5,61.3,29.82,East,101,1.0,1.0,96,0.00,,,0.67,Wunderground v.1.15,2013-06-06 21:35:00,
2013-06-06 17:45:00,62.5,61.3,29.82,ENE,66,0.0,3.0,96,0.00,,,0.67,Wunderground v.1.15,2013-06-06 21:45:00,
2013-06-06 17:55:00,62.6,61.4,29.81,ESE,115,1.0,1.0,96,0.00,,,0.67,Wunderground v.1.15,2013-06-06 21:55:00,
2013-06-06 18:05:00,62.6,61.4,29.82,NE,42,1.0,1.0,96,0.00,,,0.67,Wunderground v.1.15,2013-06-06 22:05:00,
2013-06-06 18:15:00,62.6,61.4,29.81,East,85,1.0,1.0,96,0.00,,,0.67,Wunderground v.1.15,2013-06-06 22:15:00,
2013-06-06 18:25:00,62.8,61.9,29.81,ESE,122,1.0,1.0,97,0.00,,,0.67,Wunderground v.1.15,2013-06-06 22:25:00,
2013-06-06 18:35:00,63.0,61.8,29.81,ENE,78,1.0,1.0,96,0.00,,,0.67,Wunderground v.1.15,2013-06-06 22:35:00,
2013-06-06 18:45:00,62.7,61.5,29.81,East,98,1.0,1.0,96,0.00,,,0.67,Wunderground v.1.15,2013-06-06 22:45:00,
2013-06-06 18:55:00,62.6,61.4,29.81,East,100,0.0,1.0,96,0.00,,,0.67,Wunderground v.1.15,2013-06-06 22:55:00,
2013-06-06 19:05:00,62.5,61.3,29.81,SE,137,0.0,0.0,96,0.00,,,0.67,Wunderground v.1.15,2013-06-06 23:05:00,
2013-06-06 19:15:00,62.6,61.4,29.81,East,79,0.0,0.0,96,0.00,,,0.67,Wunderground v.1.15,2013-06-06 23:15:00,
2013-06-06 19:25:00,62.6,61.4,29.80,East,83,0.0,0.0,96,0.00,,,0.67,Wunderground v.1.15,2013-06-06 23:25:00,
2013-06-06 19:35:00,62.5,61.3,29.80,ENE,65,0.0,1.0,96,0.00,,,0.67,Wunderground v.1.15,2013-06-06 23:35:00,
2013-06-06 19:40:00,62.4,61.2,29.81,ESE,107,0.0,0.0,96,0.00,,,0.67,Wunderground v.1.15,2013-06-06 23:40:00,
2013-06-06 19:50:00,62.4,61.2,29.81,ESE,108,0.0,1.0,96,0.00,,,0.67,Wunderground v.1.15,2013-06-06 23:50:00,
2013-06-06 20:00:00,62.3,61.1,29.81,ESE,104,0.0,1.0,96,0.00,,,0.67,Wunderground v.1.15,2013-06-07 00:00:00,
2013-06-06 20:05:00,62.3,61.1,29.81,ESE,104,0.0,1.0,96,0.00,,,0.67,Wunderground v.1.15,2013-06-07 00:05:00,
2013-06-06 20:15:00,62.3,61.1,29.80,ENE,69,0.0,0.0,96,0.00,,,0.67,Wunderground v.1.15,2013-06-07 00:15:00,
2013-06-06 20:20:00,62.2,61.0,29.80,East,85,0.0,0.0,96,0.00,,,0.67,Wunderground v.1.15,2013-06-07 00:20:00,
2013-06-06 20:30:00,62.2,61.0,29.80,NE,54,0.0,0.0,96,0.00,,,0.67,Wunderground v.1.15,2013-06-07 00:30:00,
2013-06-06 20:40:00,62.1,61.2,29.80,ENE,66,0.0,0.0,97,0.00,,,0.67,Wunderground v.1.15,2013-06-07 00:40:00,
2013-06-06 20:45:00,62.1,61.2,29.80,ENE,66,0.0,0.0,97,0.00,,,0.67,Wunderground v.1.15,2013-06-07 00:45:00,
2013-06-06 20:55:00,62.1,61.2,29.80,ENE,66,0.0,0.0,97,0.00,,,0.67,Wunderground v.1.15,2013-06-07 00:55:00,
2013-06-06 21:05:00,62.0,61.1,29.80,ENE,66,0.0,0.0,97,0.00,,,0.67,Wunderground v.1.15,2013-06-07 01:05:00,
2013-06-06 21:15:00,62.0,61.1,29.80,ENE,66,0.0,0.0,97,0.00,,,0.67,Wunderground v.1.15,2013-06-07 01:15:00,
2013-06-06 21:20:00,62.0,61.1,29.80,ENE,66,0.0,0.0,97,0.00,,,0.67,Wunderground v.1.15,2013-06-07 01:20:00,
2013-06-06 21:30:00,62.0,61.1,29.80,ENE,66,0.0,0.0,97,0.00,,,0.67,Wunderground v.1.15,2013-06-07 01:30:00,
2013-06-06 21:40:00,62.0,61.1,29.79,ENE,66,0.0,0.0,97,0.00,,,0.67,Wunderground v.1.15,2013-06-07 01:40:00,
2013-06-06 21:50:00,62.1,61.2,29.80,ENE,66,0.0,0.0,97,0.00,,,0.67,Wunderground v.1.15,2013-06-07 01:50:00,
2013-06-06 21:55:00,62.0,61.1,29.80,ENE,66,0.0,0.0,97,0.00,,,0.67,Wunderground v.1.15,2013-06-07 01:55:00,
2013-06-06 22:05:00,62.1,61.2,29.80,ENE,66,0.0,0.0,97,0.00,,,0.67,Wunderground v.1.15,2013-06-07 02:05:00,
2013-06-06 22:15:00,62.1,61.2,29.80,ENE,66,0.0,0.0,97,0.00,,,0.67,Wunderground v.1.15,2013-06-07 02:15:00,
2013-06-06 22:25:00,62.0,61.1,29.80,ENE,66,0.0,0.0,97,0.00,,,0.67,Wunderground v.1.15,2013-06-07 02:25:00,
2013-06-06 22:30:00,62.1,61.2,29.80,ENE,66,0.0,0.0,97,0.00,,,0.67,Wunderground v.1.15,2013-06-07 02:30:00,
2013-06-06 22:35:00,62.1,61.2,29.80,ENE,66,0.0,0.0,97,0.00,,,0.67,Wunderground v.1.15,2013-06-07 02:35:00,
2013-06-06 22:45:00,62.0,61.1,29.80,ENE,58,0.0,1.0,97,0.00,,,0.67,Wunderground v.1.15,2013-06-07 02:45:00,
2013-06-06 22:55:00,62.1,61.2,29.80,ENE,58,0.0,0.0,97,0.00,,,0.67,Wunderground v.1.15,2013-06-07 02:55:00,
2013-06-06 23:05:00,62.1,61.2,29.79,ENE,58,0.0,0.0,97,0.00,,,0.67,Wunderground v.1.15,2013-06-07 03:05:00,
2013-06-06 23:15:00,62.0,61.1,29.79,ENE,58,0.0,0.0,97,0.00,,,0.67,Wunderground v.1.15,2013-06-07 03:15:00,
2013-06-06 23:20:00,62.1,61.2,29.79,ENE,58,0.0,0.0,97,0.00,,,0.67,Wunderground v.1.15,2013-06-07 03:20:00,
2013-06-06 23:30:00,62.1,61.5,29.79,ENE,58,0.0,0.0,98,0.00,,,0.67,Wunderground v.1.15,2013-06-07 03:30:00,
2013-06-06 23:40:00,62.1,61.5,29.78,ENE,58,0.0,0.0,98,0.00,,,0.67,Wunderground v.1.15,2013-06-07 03:40:00,
2013-06-06 23:50:00,62.1,61.5,29.78,ENE,58,0.0,0.0,98,0.00,,,0.67,Wunderground v.1.15,2013-06-07 03:50:00,
2013-06-06 23:55:00,62.0,61.4,29.78,ENE,58,0.0,0.0,98,0.00,,,0.67,Wunderground v.1.15,2013-06-07 03:55:00,